Bethany Beach, DE-Boardwalk DE USA current weather conditions

sailwx.info

Wind from 019 at 13 knots gusting 20

Air temperature 6.3° C
Dewpoint 5.4° C

Last reported at 2019-Nov-18 08:00 UTC.
Time now 2019-Nov-18 08:58 UTC

Location: N 38°32' W 075°03'.
View on Google Maps.

See reports from other nearby stations

  
Tides and Currents Weather Stations Pressure Air Temp Water Temp Dewpoint Dewpoint Depression Visibility Wind Speed Wind Dir Waves Ship Positions
date/time (UTC)wind fromknots sea level pressurealtimeterstation pressurevisibilityair tempwater tempwave heightnotes
2019-Nov-18 08:00 019 13 gusting 20 6.3
2019-Nov-18 07:55 019 13 gusting 17 6.3
2019-Nov-18 07:50 017 13 gusting 18 6.4
2019-Nov-18 07:45 016 14 gusting 19 6.3
2019-Nov-18 07:40 015 13 gusting 19 6.2
2019-Nov-18 07:35 015 13 gusting 20 6.2
2019-Nov-18 07:30 012 12 gusting 17 6.1
2019-Nov-18 07:25 013 12 gusting 17 6.2
2019-Nov-18 07:20 012 12 gusting 18 6.2
2019-Nov-18 07:15 013 12 gusting 18 6.4
2019-Nov-18 07:10 015 13 gusting 19 6.3
2019-Nov-18 07:05 014 12 gusting 18 6.3
2019-Nov-18 07:00 011 13 gusting 20 6.3
2019-Nov-18 06:55 015 13 gusting 19 6.4
2019-Nov-18 06:50 018 14 gusting 19 6.4
2019-Nov-18 06:45 017 13 gusting 20 6.5
2019-Nov-18 06:40 015 12 gusting 18 6.5
2019-Nov-18 06:35 019 13 gusting 19 6.5
2019-Nov-18 06:30 021 14 gusting 20 6.6
2019-Nov-18 06:25 023 14 gusting 22 6.6
2019-Nov-18 06:20 017 14 gusting 19 6.5
2019-Nov-18 06:15 016 13 gusting 19 6.6
2019-Nov-18 06:10 015 13 gusting 20 6.6
2019-Nov-18 06:05 016 14 gusting 22 6.5
2019-Nov-18 06:00 013 13 gusting 18 6.5
2019-Nov-18 05:55 015 13 gusting 19 6.6
2019-Nov-18 05:50 013 14 gusting 20 6.5
2019-Nov-18 05:45 014 13 gusting 20 6.6
2019-Nov-18 05:40 016 14 gusting 21 6.7
2019-Nov-18 05:35 018 14 gusting 21 6.7
2019-Nov-18 05:30 016 15 gusting 22 6.7
2019-Nov-18 05:25 018 15 gusting 21 6.8
2019-Nov-18 05:20 021 15 gusting 21 6.9
2019-Nov-18 05:15 019 15 gusting 22 6.8
2019-Nov-18 05:10 019 14 gusting 19 6.9
2019-Nov-18 05:05 019 14 gusting 21 6.9
2019-Nov-18 05:00 021 15 gusting 21 6.9
2019-Nov-18 04:55 018 14 gusting 19 6.8
2019-Nov-18 04:50 025 15 gusting 21 7.0
2019-Nov-18 04:45 022 16 gusting 23 6.9
2019-Nov-18 04:40 022 14 gusting 19 7.0
2019-Nov-18 04:35 022 14 gusting 23 7.1
2019-Nov-18 04:30 023 14 gusting 20 7.2
2019-Nov-18 04:25 024 16 gusting 21 7.1
2019-Nov-18 04:20 025 16 gusting 22 7.1
2019-Nov-18 04:15 026 17 gusting 23 7.1
2019-Nov-18 04:10 032 18 gusting 26 7.0
2019-Nov-18 04:05 026 16 gusting 22 7.1
2019-Nov-18 04:00 029 17 gusting 22 7.2
2019-Nov-18 03:55 029 17 gusting 24 7.1
2019-Nov-18 03:50 023 16 gusting 22 7.0
2019-Nov-18 03:45 024 16 gusting 21 7.1
2019-Nov-18 03:40 025 16 gusting 23 7.1
2019-Nov-18 03:35 025 16 gusting 21 7.1
2019-Nov-18 03:30 025 16 gusting 23 7.1
2019-Nov-18 03:25 021 15 gusting 22 7.1
2019-Nov-18 03:20 024 15 gusting 20 7.2
2019-Nov-18 03:15 022 16 gusting 22 7.0
2019-Nov-18 03:10 022 16 gusting 23 7.1
2019-Nov-18 03:05 025 15 gusting 21 7.1
2019-Nov-18 03:00 023 16 gusting 24 7.1
2019-Nov-18 02:55 021 15 gusting 20 7.0
2019-Nov-18 02:50 020 14 gusting 20 7.0
2019-Nov-18 02:45 019 15 gusting 21 7.0
2019-Nov-18 02:40 022 15 gusting 21 7.0
2019-Nov-18 02:35 019 15 gusting 20 7.1
2019-Nov-18 02:30 022 14 gusting 19 7.2
2019-Nov-18 02:25 020 15 gusting 21 7.1
2019-Nov-18 02:20 023 15 gusting 21 7.2
2019-Nov-18 02:15 023 15 gusting 20 7.2
2019-Nov-18 02:10 021 14 gusting 22 7.3
2019-Nov-18 02:05 020 14 gusting 21 7.3
2019-Nov-18 02:00 022 15 gusting 20 7.3
2019-Nov-18 01:55 021 15 gusting 20 7.4
2019-Nov-18 01:50 023 15 gusting 21 7.4
2019-Nov-18 01:45 022 16 gusting 21 7.5
2019-Nov-18 01:40 024 15 gusting 20 7.5
2019-Nov-18 01:35 023 15 gusting 22 7.6
2019-Nov-18 01:30 024 15 gusting 22 7.6
2019-Nov-18 01:25 023 16 gusting 22 7.5
2019-Nov-18 01:20 028 15 gusting 20 7.7
2019-Nov-18 01:15 024 14 gusting 20 7.7
2019-Nov-18 01:10 024 15 gusting 22 7.5
2019-Nov-18 01:05 023 16 gusting 21 7.4
2019-Nov-18 01:00 021 15 gusting 24 7.5
2019-Nov-18 00:55 021 14 gusting 19 7.5
2019-Nov-18 00:50 024 16 gusting 22 7.5
2019-Nov-18 00:45 021 15 gusting 21 7.6
2019-Nov-18 00:40 023 15 gusting 21 7.6
2019-Nov-18 00:35 023 15 gusting 20 7.6
2019-Nov-18 00:30 023 15 gusting 21 7.5
2019-Nov-18 00:25 023 15 gusting 20 7.6
2019-Nov-18 00:20 023 14 gusting 19 7.6
2019-Nov-18 00:15 023 15 gusting 20 7.6
2019-Nov-18 00:10 023 14 gusting 19 7.5
2019-Nov-18 00:05 021 15 gusting 19 7.4
2019-Nov-18 00:00 020 15 gusting 21 7.4
2019-Nov-17 23:55 019 14 gusting 20 7.3
2019-Nov-17 23:50 019 15 gusting 20 7.4
2019-Nov-17 23:45 021 15 gusting 21 7.4
2019-Nov-17 23:40 021 16 gusting 22 7.5
2019-Nov-17 23:35 020 15 gusting 21 7.6
2019-Nov-17 23:30 021 14 gusting 21 7.7
2019-Nov-17 23:25 021 15 gusting 20 7.6
2019-Nov-17 23:20 022 16 gusting 20 7.6
2019-Nov-17 23:15 023 16 gusting 22 7.6
2019-Nov-17 23:10 020 16 gusting 22 7.7
2019-Nov-17 23:05 022 15 gusting 20 7.7
2019-Nov-17 23:00 023 16 gusting 22 7.7
2019-Nov-17 22:55 022 16 gusting 22 7.8
2019-Nov-17 22:50 020 16 gusting 20 7.9
2019-Nov-17 22:45 023 16 gusting 21 7.9
2019-Nov-17 22:40 025 16 gusting 22 8.0
2019-Nov-17 22:35 026 16 gusting 22 8.0
2019-Nov-17 22:30 026 16 gusting 22 8.0
2019-Nov-17 22:25 027 16 gusting 22 8.0
2019-Nov-17 22:20 025 15 gusting 23 8.0
2019-Nov-17 22:15 025 16 gusting 21 7.9
2019-Nov-17 22:10 027 17 gusting 21 7.9
2019-Nov-17 22:05 028 16 gusting 23 8.2
2019-Nov-17 22:00 029 17 gusting 22 8.2
2019-Nov-17 21:55 029 16 gusting 22 8.2
2019-Nov-17 21:50 028 17 gusting 23 8.1
2019-Nov-17 21:45 029 16 gusting 21 8.1
2019-Nov-17 21:40 028 16 gusting 21 8.1
2019-Nov-17 21:35 027 16 gusting 24 8.2
2019-Nov-17 21:30 027 16 gusting 21 8.3
2019-Nov-17 21:25 029 16 gusting 22 8.3
2019-Nov-17 21:20 027 15 gusting 21 8.4
2019-Nov-17 21:15 027 16 gusting 21 8.2
2019-Nov-17 21:10 030 17 gusting 24 8.1
2019-Nov-17 21:05 026 16 gusting 22 8.1
2019-Nov-17 21:00 026 16 gusting 22 8.1
2019-Nov-17 20:55 027 15 gusting 22 8.2
2019-Nov-17 20:50 029 17 gusting 23 8.2
2019-Nov-17 20:45 029 17 gusting 22 8.4
2019-Nov-17 20:40 030 16 gusting 22 8.6
2019-Nov-17 20:35 030 16 gusting 20 8.6
2019-Nov-17 20:30 029 17 gusting 22 8.5
2019-Nov-17 20:25 028 16 gusting 20 8.4
2019-Nov-17 20:20 029 16 gusting 21 8.3
2019-Nov-17 20:15 030 16 gusting 21 8.4
2019-Nov-17 20:10 029 16 gusting 21 8.3
2019-Nov-17 20:05 031 16 gusting 21 8.4
2019-Nov-17 20:00 033 17 gusting 22 8.3
2019-Nov-17 19:55 029 17 gusting 23 8.2
2019-Nov-17 19:50 028 16 gusting 23 8.3
2019-Nov-17 19:45 030 17 gusting 22 8.2
2019-Nov-17 19:40 027 16 gusting 22 8.2
2019-Nov-17 19:35 029 17 gusting 23 8.1
2019-Nov-17 19:30 027 16 gusting 21 8.1
2019-Nov-17 19:25 028 16 gusting 22 8.1
2019-Nov-17 19:20 023 15 gusting 22 8.1
2019-Nov-17 19:15 024 15 gusting 21 8.2
2019-Nov-17 19:10 024 15 gusting 21 8.1
2019-Nov-17 19:05 020 15 gusting 19 7.9
2019-Nov-17 19:00 022 15 gusting 22 8.0
2019-Nov-17 18:55 023 15 gusting 21 7.9
2019-Nov-17 18:50 021 14 gusting 20 7.8
2019-Nov-17 18:45 024 15 gusting 22 7.8
2019-Nov-17 18:40 025 15 gusting 22 7.8
2019-Nov-17 18:35 021 13 gusting 18 7.8
2019-Nov-17 18:30 022 14 gusting 19 7.7
2019-Nov-17 18:25 022 14 gusting 20 7.8
2019-Nov-17 18:20 020 14 gusting 19 7.6
2019-Nov-17 18:15 020 14 gusting 20 7.7
2019-Nov-17 18:10 020 13 gusting 21 7.8
2019-Nov-17 18:05 024 15 gusting 20 7.7
2019-Nov-17 18:00 024 14 gusting 20 7.8
2019-Nov-17 17:55 025 14 gusting 19 7.8
2019-Nov-17 17:50 023 13 gusting 20 7.7
2019-Nov-17 17:45 024 14 gusting 21 7.6
2019-Nov-17 17:40 024 14 gusting 19 7.4
2019-Nov-17 17:35 023 14 gusting 19 7.5
2019-Nov-17 17:30 024 14 gusting 20 7.4
2019-Nov-17 17:25 024 14 gusting 20 7.3
2019-Nov-17 17:20 021 14 gusting 21 7.2
2019-Nov-17 17:15 019 13 gusting 21 7.4
2019-Nov-17 17:10 022 14 gusting 19 7.2
2019-Nov-17 17:05 022 14 gusting 21 7.1
2019-Nov-17 17:00 019 14 gusting 20 7.0
2019-Nov-17 16:55 021 14 gusting 20 7.1
2019-Nov-17 16:50 018 13 gusting 21 6.8
2019-Nov-17 16:45 014 13 gusting 18 6.8
2019-Nov-17 16:40 015 13 gusting 18 6.7
2019-Nov-17 16:35 015 12 gusting 20 6.7
2019-Nov-17 16:30 022 13 gusting 19 6.7
2019-Nov-17 16:25 018 13 gusting 19 6.7
2019-Nov-17 16:20 021 14 gusting 19 6.7
2019-Nov-17 16:15 020 13 gusting 20 6.8
2019-Nov-17 16:10 022 14 gusting 18 6.7
2019-Nov-17 16:05 020 14 gusting 20 6.5
2019-Nov-17 16:00 025 15 gusting 21 6.7
2019-Nov-17 15:55 023 14 gusting 20 6.4
2019-Nov-17 15:50 017 13 gusting 19 6.3
2019-Nov-17 15:45 021 14 gusting 20 6.3
2019-Nov-17 15:40 023 14 gusting 19 6.4
2019-Nov-17 15:35 026 15 gusting 22 6.2
2019-Nov-17 15:30 024 14 gusting 18 6.1
2019-Nov-17 15:25 023 14 gusting 19 5.9
2019-Nov-17 15:20 025 15 gusting 21 5.9
2019-Nov-17 15:15 026 15 gusting 19 5.7
2019-Nov-17 15:10 030 16 gusting 22 5.7
2019-Nov-17 15:05 023 16 gusting 22 5.6
2019-Nov-17 15:00 025 15 gusting 21 5.6
2019-Nov-17 14:55 022 15 gusting 22 5.5
2019-Nov-17 14:50 023 15 gusting 21 5.5
2019-Nov-17 14:45 022 15 gusting 22 5.5
2019-Nov-17 14:40 019 14 gusting 21 5.6
2019-Nov-17 14:35 019 15 gusting 21 5.5
2019-Nov-17 14:30 026 17 gusting 23 5.6
2019-Nov-17 14:25 023 16 gusting 22 5.4
2019-Nov-17 14:20 023 16 gusting 22 5.4
2019-Nov-17 14:15 021 15 gusting 23 5.5
2019-Nov-17 14:10 023 15 gusting 21 5.5
2019-Nov-17 14:05 026 17 gusting 22 5.4
2019-Nov-17 14:00 023 16 gusting 24 5.5
2019-Nov-17 13:55 022 16 gusting 23 5.6
2019-Nov-17 13:50 027 17 gusting 27 5.7
2019-Nov-17 13:45 024 17 gusting 23 5.5
2019-Nov-17 13:40 022 17 gusting 23 5.4
2019-Nov-17 13:35 024 16 gusting 24 5.7
2019-Nov-17 13:30 024 17 gusting 23 5.5
2019-Nov-17 13:25 023 16 gusting 23 5.5
2019-Nov-17 13:20 022 16 gusting 24 5.4
2019-Nov-17 13:15 021 18 gusting 25 5.4
2019-Nov-17 13:10 022 17 gusting 22 5.4
2019-Nov-17 13:05 016 15 gusting 24 5.4
2019-Nov-17 13:00 020 17 gusting 23 5.4
2019-Nov-17 12:55 021 18 gusting 24 5.5
2019-Nov-17 12:50 023 16 gusting 22 5.8
2019-Nov-17 12:45 021 16 gusting 22 5.7
2019-Nov-17 12:40 021 16 gusting 23 5.4
2019-Nov-17 12:35 021 16 gusting 23 5.4
2019-Nov-17 12:30 015 15 gusting 22 5.1
2019-Nov-17 12:25 013 14 gusting 22 5.1
2019-Nov-17 12:20 016 15 gusting 21 5.1
2019-Nov-17 12:15 013 14 gusting 20 5.0
2019-Nov-17 12:10 012 14 gusting 20 4.9
2019-Nov-17 12:05 012 15 gusting 22 5.0
2019-Nov-17 12:00 016 14 gusting 20 5.1
2019-Nov-17 11:55 015 15 gusting 21 5.1
2019-Nov-17 11:50 015 14 gusting 22 5.2
2019-Nov-17 11:45 014 14 gusting 21 5.0
2019-Nov-17 11:40 012 15 gusting 20 5.1
2019-Nov-17 11:35 014 15 gusting 21 5.0
2019-Nov-17 11:30 011 14 gusting 20 5.4
2019-Nov-17 11:25 013 13 gusting 20 5.4
2019-Nov-17 11:20 015 13 gusting 19 5.8
2019-Nov-17 11:15 011 12 gusting 19 5.7
2019-Nov-17 11:10 015 13 gusting 19 6.1
2019-Nov-17 11:05 018 13 gusting 20 6.2
2019-Nov-17 11:00 014 13 gusting 18 6.5
2019-Nov-17 10:55 024 13 gusting 18 7.3
2019-Nov-17 10:50 039 16 gusting 24 8.9
2019-Nov-17 10:45 042 18 gusting 22 9.4
2019-Nov-17 10:40 049 18 gusting 23 9.5
2019-Nov-17 10:35 045 20 gusting 26 9.2
2019-Nov-17 10:30 048 18 gusting 23 9.2
2019-Nov-17 10:25 048 18 gusting 24 9.2
2019-Nov-17 10:20 047 19 gusting 26 9.0
2019-Nov-17 10:15 049 19 gusting 23 9.1
2019-Nov-17 10:10 049 20 gusting 27 9.1
2019-Nov-17 10:05 051 19 gusting 24 9.2
2019-Nov-17 10:00 042 19 gusting 24 9.0
2019-Nov-17 09:55 047 19 gusting 22 8.9
2019-Nov-17 09:50 051 20 gusting 25 9.1
2019-Nov-17 09:45 057 19 gusting 25 9.2
2019-Nov-17 09:40 053 19 gusting 25 9.1
2019-Nov-17 09:35 051 19 gusting 25 9.0
2019-Nov-17 09:30 052 17 gusting 23 9.0
2019-Nov-17 09:25 056 18 gusting 24 9.2
2019-Nov-17 09:20 062 18 gusting 23 9.3
2019-Nov-17 09:15 059 18 gusting 25 9.2
2019-Nov-17 09:10 059 16 gusting 23 8.9
2019-Nov-17 09:05 064 17 gusting 22 8.8
2019-Nov-17 09:00 065 17 gusting 25 9.0
2019-Nov-17 08:55 065 19 gusting 27 9.3
2019-Nov-17 08:50 062 17 gusting 26 9.0
2019-Nov-17 08:45 055 17 gusting 24 8.9
2019-Nov-17 08:40 057 20 gusting 26 9.0
2019-Nov-17 08:35 063 18 gusting 23 9.1
2019-Nov-17 08:30 062 20 gusting 25 9.0
2019-Nov-17 08:25 061 19 gusting 24 9.0
2019-Nov-17 08:20 066 17 gusting 24 9.0
2019-Nov-17 08:15 062 19 gusting 24 8.8
2019-Nov-17 08:10 059 19 gusting 26 9.0
2019-Nov-17 08:05 063 17 gusting 23 8.8
2019-Nov-17 08:00 065 18 gusting 25 8.7
2019-Nov-17 07:55 065 18 gusting 24 8.7
2019-Nov-17 07:50 058 19 gusting 24 8.7
2019-Nov-17 07:45 058 18 gusting 23 8.7
2019-Nov-17 07:40 060 20 gusting 27 8.8
2019-Nov-17 07:35 058 19 gusting 25 8.9
2019-Nov-17 07:30 059 17 gusting 23 8.8
2019-Nov-17 07:25 063 18 gusting 24 8.8
2019-Nov-17 07:20 065 17 gusting 21 8.8
2019-Nov-17 07:15 069 17 gusting 25 8.8
2019-Nov-17 07:10 062 18 gusting 25 8.9
2019-Nov-17 07:05 066 18 gusting 24 9.0
2019-Nov-17 07:00 065 16 gusting 22 8.8
2019-Nov-17 06:55 067 16 gusting 24 8.9
2019-Nov-17 06:50 066 17 gusting 24 8.8
2019-Nov-17 06:45 063 18 gusting 22 8.7
2019-Nov-17 06:40 064 18 gusting 24 9.0
2019-Nov-17 06:35 064 17 gusting 23 8.9
2019-Nov-17 06:30 065 18 gusting 23 8.9
2019-Nov-17 06:25 062 18 gusting 23 8.8
2019-Nov-17 06:20 058 20 gusting 25 8.8
2019-Nov-17 06:15 067 19 gusting 28 9.0
2019-Nov-17 06:10 061 19 gusting 26 8.6
2019-Nov-17 06:05 060 19 gusting 27 8.7
2019-Nov-17 06:00 063 18 gusting 24 8.7
2019-Nov-17 05:55 061 19 gusting 26 8.6
2019-Nov-17 05:50 061 18 gusting 25 8.5
2019-Nov-17 05:45 066 18 gusting 26 8.5
2019-Nov-17 05:40 061 20 gusting 26 8.5
2019-Nov-17 05:35 062 19 gusting 26 8.5
2019-Nov-17 05:30 063 19 gusting 24 8.6
2019-Nov-17 05:25 063 19 gusting 26 8.5
2019-Nov-17 05:20 060 18 gusting 24 8.6
2019-Nov-17 05:15 067 18 gusting 24 8.7
2019-Nov-17 05:10 063 18 gusting 25 8.4
2019-Nov-17 05:05 060 18 gusting 25 8.2
2019-Nov-17 05:00 071 17 gusting 23 8.5
2019-Nov-17 04:55 065 18 gusting 24 8.4
2019-Nov-17 04:50 064 17 gusting 24 8.4
2019-Nov-17 04:45 068 18 gusting 24 8.3
2019-Nov-17 04:40 065 17 gusting 23 8.5
2019-Nov-17 04:35 065 18 gusting 28 8.5
2019-Nov-17 04:30 069 18 gusting 24 8.5
2019-Nov-17 04:25 071 19 gusting 28 8.6
2019-Nov-17 04:20 068 18 gusting 26 8.6
2019-Nov-17 04:15 067 19 gusting 26 8.5
2019-Nov-17 04:10 064 19 gusting 25 8.4
2019-Nov-17 04:05 062 21 gusting 29 8.4
2019-Nov-17 04:00 063 18 gusting 27 8.4
2019-Nov-17 03:55 065 19 gusting 25 8.4
2019-Nov-17 03:50 061 19 gusting 24 8.5
2019-Nov-17 03:45 073 18 gusting 26 8.4
2019-Nov-17 03:40 064 19 gusting 27 8.3
2019-Nov-17 03:35 058 20 gusting 26 8.4
2019-Nov-17 03:30 059 19 gusting 25 8.5
2019-Nov-17 03:25 063 19 gusting 24 8.3
2019-Nov-17 03:20 065 20 gusting 28 8.4
2019-Nov-17 03:15 065 19 gusting 25 8.2
2019-Nov-17 03:10 067 21 gusting 29 8.4
2019-Nov-17 03:05 060 19 gusting 27 8.6
2019-Nov-17 03:00 065 19 gusting 25 8.4
2019-Nov-17 02:55 068 21 gusting 28 8.4
2019-Nov-17 02:50 059 20 gusting 27 8.2
2019-Nov-17 02:45 063 19 gusting 25 8.3
2019-Nov-17 02:40 062 21 gusting 27 8.4
2019-Nov-17 02:35 062 20 gusting 27 8.2
2019-Nov-17 02:30 067 20 gusting 27 8.6
2019-Nov-17 02:25 062 19 gusting 28 8.5
2019-Nov-17 02:20 060 21 gusting 27 8.6
2019-Nov-17 02:15 064 20 gusting 27 8.6
2019-Nov-17 02:10 063 19 gusting 25 8.7
2019-Nov-17 02:05 062 20 gusting 26 8.6
2019-Nov-17 02:00 066 20 gusting 27 8.6
2019-Nov-17 01:55 067 18 gusting 25 8.5
2019-Nov-17 01:50 069 18 gusting 25 8.6
2019-Nov-17 01:45 058 21 gusting 26 8.4
2019-Nov-17 01:40 062 19 gusting 26 8.6
2019-Nov-17 01:35 059 20 gusting 27 8.4
2019-Nov-17 01:30 051 21 gusting 26 8.2
2019-Nov-17 01:25 057 21 gusting 27 8.5
2019-Nov-17 01:20 064 20 gusting 25 8.4
2019-Nov-17 01:15 053 20 gusting 26 8.4
2019-Nov-17 01:10 064 19 gusting 27 8.4
2019-Nov-17 01:05 050 20 gusting 26 8.1
2019-Nov-17 01:00 058 23 gusting 27 8.2
2019-Nov-17 00:55 053 22 gusting 28 8.2
2019-Nov-17 00:50 052 20 gusting 28 8.1
2019-Nov-17 00:45 057 22 gusting 30 8.1
2019-Nov-17 00:40 055 21 gusting 28 8.2
2019-Nov-17 00:35 058 20 gusting 26 8.0
2019-Nov-17 00:30 059 21 gusting 28 8.0
2019-Nov-17 00:25 054 21 gusting 27 7.9
2019-Nov-17 00:20 060 21 gusting 25 8.2
2019-Nov-17 00:15 058 20 gusting 25 8.2
2019-Nov-17 00:10 055 19 gusting 26 8.1
2019-Nov-17 00:05 055 20 gusting 26 8.1
2019-Nov-17 00:00 060 21 gusting 27 8.2
2019-Nov-16 23:55 058 21 gusting 26 8.1
2019-Nov-16 23:50 057 20 gusting 26 8.0
2019-Nov-16 23:45 058 20 gusting 27 8.2
2019-Nov-16 23:40 057 20 gusting 27 8.1
2019-Nov-16 23:35 055 20 gusting 27 8.0
2019-Nov-16 23:30 061 21 gusting 27 7.9
2019-Nov-16 23:25 058 20 gusting 25 8.0
2019-Nov-16 23:20 056 19 gusting 24 7.9
2019-Nov-16 23:15 066 19 gusting 26 7.8
2019-Nov-16 23:10 059 20 gusting 25 7.6
2019-Nov-16 23:05 056 20 gusting 29 7.9
2019-Nov-16 23:00 058 20 gusting 27 8.0
2019-Nov-16 22:55 058 21 gusting 28 8.0
2019-Nov-16 22:50 056 20 gusting 26 7.9
2019-Nov-16 22:45 057 20 gusting 28 7.6
2019-Nov-16 22:40 062 20 gusting 27 7.9
2019-Nov-16 22:35 056 20 gusting 26 7.8
2019-Nov-16 22:30 058 19 gusting 25 7.8
2019-Nov-16 22:25 046 21 gusting 27 7.7
2019-Nov-16 22:20 053 21 gusting 29 7.6
2019-Nov-16 22:15 045 20 gusting 26 7.3
2019-Nov-16 22:10 048 21 gusting 28 7.4
2019-Nov-16 22:05 046 22 gusting 27 7.5
2019-Nov-16 22:00 048 22 gusting 31 7.4
2019-Nov-16 21:55 049 21 gusting 28 7.5
2019-Nov-16 21:50 050 21 gusting 31 7.3
2019-Nov-16 21:45 047 23 gusting 28 7.4
2019-Nov-16 21:40 044 22 gusting 30 7.4
2019-Nov-16 21:35 051 23 gusting 29 7.4
2019-Nov-16 21:30 051 21 gusting 26 7.4
2019-Nov-16 21:25 055 22 gusting 28 7.3
2019-Nov-16 21:20 055 22 gusting 31 7.3
2019-Nov-16 21:15 048 21 gusting 28 7.3
2019-Nov-16 21:10 049 21 gusting 28 7.4
2019-Nov-16 21:05 050 20 gusting 27 7.4
2019-Nov-16 21:00 051 22 gusting 28 7.3
2019-Nov-16 20:55 052 22 gusting 29 7.5
2019-Nov-16 20:50 048 22 gusting 28 7.5
2019-Nov-16 20:45 052 21 gusting 28 7.7
2019-Nov-16 20:40 054 21 gusting 28 7.7
2019-Nov-16 20:35 054 20 gusting 25 7.7
2019-Nov-16 20:30 051 21 gusting 29 7.7
2019-Nov-16 20:25 050 21 gusting 29 7.7
2019-Nov-16 20:20 054 22 gusting 28 7.6
2019-Nov-16 20:15 048 22 gusting 27 7.6
2019-Nov-16 20:10 049 21 gusting 29 7.6
2019-Nov-16 20:05 050 21 gusting 28 7.7
2019-Nov-16 20:00 053 20 gusting 27 7.7
2019-Nov-16 19:55 047 20 gusting 26 7.5
2019-Nov-16 19:50 051 21 gusting 27 7.6
2019-Nov-16 19:45 047 22 gusting 27 7.6
2019-Nov-16 19:40 053 20 gusting 27 7.6
2019-Nov-16 19:35 050 22 gusting 27 7.5
2019-Nov-16 19:30 051 21 gusting 29 7.6
2019-Nov-16 19:25 053 20 gusting 28 7.5
2019-Nov-16 19:20 051 21 gusting 29 7.4
2019-Nov-16 19:15 054 22 gusting 29 7.6
2019-Nov-16 19:10 053 21 gusting 26 7.4
2019-Nov-16 19:05 049 22 gusting 31 7.4
2019-Nov-16 19:00 051 21 gusting 26 7.4
2019-Nov-16 18:55 055 22 gusting 29 7.4
2019-Nov-16 18:50 051 21 gusting 28 7.4
2019-Nov-16 18:45 052 21 gusting 27 7.5
2019-Nov-16 18:40 052 22 gusting 29 7.4
2019-Nov-16 18:35 055 22 gusting 28 7.3
2019-Nov-16 18:30 055 21 gusting 27 7.6
2019-Nov-16 18:25 053 22 gusting 29 7.5
2019-Nov-16 18:20 056 20 gusting 25 7.4
2019-Nov-16 18:15 058 21 gusting 27 7.4
2019-Nov-16 18:10 050 22 gusting 28 7.4
2019-Nov-16 18:05 059 21 gusting 28 7.4
2019-Nov-16 18:00 055 22 gusting 28 7.5
2019-Nov-16 17:55 051 22 gusting 29 7.5
2019-Nov-16 17:50 049 23 gusting 29 7.5
2019-Nov-16 17:45 052 22 gusting 29 7.5
2019-Nov-16 17:40 054 22 gusting 30 7.6
2019-Nov-16 17:35 056 21 gusting 26 7.7
2019-Nov-16 17:30 054 22 gusting 30 7.7
2019-Nov-16 17:25 050 22 gusting 29 7.5
2019-Nov-16 17:20 055 22 gusting 30 7.4
2019-Nov-16 17:15 055 22 gusting 30 7.5
2019-Nov-16 17:10 051 22 gusting 27 7.3
2019-Nov-16 17:05 053 22 gusting 29 7.4
2019-Nov-16 17:00 051 22 gusting 34 7.5
2019-Nov-16 16:55 054 22 gusting 27 7.4
2019-Nov-16 16:50 052 21 gusting 30 7.6
2019-Nov-16 16:45 050 22 gusting 28 7.4
2019-Nov-16 16:40 048 22 gusting 28 7.4
2019-Nov-16 16:35 047 23 gusting 30 7.5
2019-Nov-16 16:30 055 21 gusting 29 7.6
2019-Nov-16 16:25 053 21 gusting 29 7.5
2019-Nov-16 16:20 043 20 gusting 26 7.4
2019-Nov-16 16:15 049 23 gusting 31 7.5
2019-Nov-16 16:10 045 22 gusting 29 7.6
2019-Nov-16 16:05 053 22 gusting 28 7.7
2019-Nov-16 16:00 050 24 gusting 32 7.5
2019-Nov-16 15:55 050 24 gusting 31 7.5
2019-Nov-16 15:50 044 23 gusting 30 7.7
2019-Nov-16 15:45 046 23 gusting 30 7.8
2019-Nov-16 15:40 046 21 gusting 29 7.9
2019-Nov-16 15:35 055 20 gusting 26 8.0
2019-Nov-16 15:30 053 22 gusting 29 7.9
2019-Nov-16 15:25 048 23 gusting 30 7.7
2019-Nov-16 15:20 049 22 gusting 28 7.7
2019-Nov-16 15:15 045 23 gusting 30 7.7
2019-Nov-16 15:10 059 22 gusting 31 7.8
2019-Nov-16 15:05 047 23 gusting 31 7.8
2019-Nov-16 15:00 048 23 gusting 29 7.7
2019-Nov-16 14:55 049 22 gusting 27 7.8
2019-Nov-16 14:50 045 20 gusting 28 7.5
2019-Nov-16 14:45 036 21 gusting 29 7.4
2019-Nov-16 14:40 035 22 gusting 31 7.4
2019-Nov-16 14:35 036 23 gusting 29 7.5
2019-Nov-16 14:30 036 21 gusting 28 7.6
2019-Nov-16 14:25 037 22 gusting 28 7.6
2019-Nov-16 14:20 041 21 gusting 28 8.2
2019-Nov-16 14:15 041 21 gusting 28 8.4
2019-Nov-16 14:10 049 22 gusting 29 8.5
2019-Nov-16 14:05 047 22 gusting 28 8.4
2019-Nov-16 14:00 051 22 gusting 29 8.4
2019-Nov-16 13:55 047 23 gusting 31 8.3
2019-Nov-16 13:50 051 20 gusting 29 8.3
2019-Nov-16 13:45 048 22 gusting 29 8.1
2019-Nov-16 13:40 048 21 gusting 27 8.1
2019-Nov-16 13:35 043 22 gusting 30 7.9
2019-Nov-16 13:30 042 19 gusting 24 7.4
2019-Nov-16 13:25 025 17 gusting 24 6.7
2019-Nov-16 13:20 025 17 gusting 23 6.6
2019-Nov-16 13:15 022 17 gusting 23 6.6
2019-Nov-16 13:10 025 18 gusting 24 6.7
2019-Nov-16 13:05 025 17 gusting 23 6.5
2019-Nov-16 13:00 026 17 gusting 24 6.5
2019-Nov-16 12:55 024 18 gusting 25 6.5
2019-Nov-16 12:50 028 17 gusting 23 6.5
2019-Nov-16 12:45 026 17 gusting 24 6.4
2019-Nov-16 12:40 029 17 gusting 23 6.5
2019-Nov-16 12:35 025 17 gusting 25 6.4
2019-Nov-16 12:30 025 16 gusting 22 6.4
2019-Nov-16 12:25 025 17 gusting 24 6.4
2019-Nov-16 12:20 028 18 gusting 24 6.4
2019-Nov-16 12:15 026 18 gusting 24 6.4
2019-Nov-16 12:10 028 19 gusting 24 6.4
2019-Nov-16 12:05 030 18 gusting 26 6.3
2019-Nov-16 12:00 029 19 gusting 25 6.4
2019-Nov-16 11:55 030 18 gusting 24 6.3
2019-Nov-16 11:50 028 16 gusting 21 6.3
2019-Nov-16 11:45 032 19 gusting 27 6.2
2019-Nov-16 11:40 026 17 gusting 26 6.2
2019-Nov-16 11:35 026 17 gusting 23 6.2
2019-Nov-16 11:30 028 17 gusting 24 6.2
2019-Nov-16 11:25 026 18 gusting 22 6.1
2019-Nov-16 11:20 029 18 gusting 24 6.1
2019-Nov-16 11:15 024 18 gusting 23 6.0
2019-Nov-16 11:10 021 17 gusting 24 5.9
2019-Nov-16 11:05 025 16 gusting 23 6.1
2019-Nov-16 11:00 025 17 gusting 22 5.9
2019-Nov-16 10:55 026 17 gusting 22 5.9
2019-Nov-16 10:50 023 16 gusting 23 5.9
2019-Nov-16 10:45 024 17 gusting 23 5.9
2019-Nov-16 10:40 022 17 gusting 25 5.8
2019-Nov-16 10:35 027 17 gusting 24 5.9
2019-Nov-16 10:30 026 18 gusting 24 5.9
2019-Nov-16 10:25 026 18 gusting 24 6.0
2019-Nov-16 10:20 029 18 gusting 27 6.1
2019-Nov-16 10:15 029 18 gusting 26 6.1
2019-Nov-16 10:10 029 19 gusting 25 6.1
2019-Nov-16 10:05 027 18 gusting 24 6.1
2019-Nov-16 10:00 031 19 gusting 25 6.1
2019-Nov-16 09:55 030 19 gusting 26 6.1
2019-Nov-16 09:50 029 20 gusting 27 6.1
2019-Nov-16 09:45 029 20 gusting 26 6.1
2019-Nov-16 09:40 026 19 gusting 25 6.1
2019-Nov-16 09:35 031 20 gusting 28 6.2
2019-Nov-16 09:30 031 21 gusting 31 6.1
2019-Nov-16 09:25 029 21 gusting 28 6.1
2019-Nov-16 09:20 028 20 gusting 28 6.2
2019-Nov-16 09:15 030 20 gusting 27 6.2
2019-Nov-16 09:10 032 21 gusting 29 6.3
2019-Nov-16 09:05 031 22 gusting 28 6.3
2019-Nov-16 09:00 030 21 gusting 27 6.3
2019-Nov-16 08:55 030 22 gusting 29 6.4
2019-Nov-16 08:50 032 21 gusting 28 6.4
2019-Nov-16 08:45 029 22 gusting 29 6.4
2019-Nov-16 08:40 029 19 gusting 26 6.6
2019-Nov-16 08:35 025 20 gusting 28 6.5
2019-Nov-16 08:30 026 19 gusting 27 6.5
2019-Nov-16 08:25 028 20 gusting 27 6.5
2019-Nov-16 08:20 028 19 gusting 28 6.5
2019-Nov-16 08:15 030 20 gusting 26 6.5
2019-Nov-16 08:10 031 21 gusting 26 6.5
2019-Nov-16 08:05 031 20 gusting 28 6.5
2019-Nov-16 08:00 028 19 gusting 25 6.5